period_start,C,m1,H,J0,J1,J2,J3,J4,J5,JA,JB,JC,JD,JJ,JK,JN,#
2013-07-31 00:00:38,0.01,0.00,0.00,25.57,28.45,30.80,5.93,31.21,1019.06,2048.01,3509.01,3350.00,3653.00,350.01,321.95,0.32,0000 0000 0000 0000 000000
2013-07-31 00:01:39,-0.01,0.00,0.00,25.60,28.45,30.82,5.80,31.25,1019.06,2048.03,3509.02,3350.01,3653.00,349.08,321.14,0.33,0000 0000 0000 0000 000000
2013-07-31 00:02:39,0.01,0.00,0.00,25.62,28.45,30.79,5.75,31.25,1019.06,2048.02,3509.04,3350.01,3653.00,348.86,320.85,0.33,0000 0000 0000 0000 000000
2013-07-31 00:03:39,-0.01,0.00,0.00,25.57,28.45,30.78,6.07,31.42,1019.06,2048.05,3509.13,3350.03,3653.00,350.87,322.27,0.34,0000 0000 0000 0000 000000
2013-07-31 00:04:39,0.02,0.00,0.00,25.58,28.45,30.77,6.06,31.38,1019.06,2048.05,3509.12,3350.04,3653.00,350.27,322.18,0.35,0000 0000 0000 0000 000000
2013-07-31 00:05:39,0.01,0.00,0.00,25.59,28.45,30.80,6.18,31.54,1019.06,2048.03,3509.13,3350.03,3653.01,349.34,321.33,0.35,0000 0000 0000 0000 000000
2013-07-31 00:06:39,-0.03,0.00,0.00,25.54,28.45,30.79,6.05,31.46,1019.06,2048.03,3509.12,3350.02,3653.02,350.10,322.08,0.36,0000 0000 0000 0000 000000
2013-07-31 00:07:40,-0.01,0.00,0.00,25.53,28.45,30.79,5.93,31.29,1019.06,2048.05,3509.08,3350.02,3653.00,349.61,321.47,0.36,0000 0000 0000 0000 000000
2013-07-31 00:08:40,0.02,0.00,0.00,25.54,28.45,30.80,5.90,31.25,1019.06,2048.04,3509.06,3350.03,3653.00,349.47,321.15,0.37,0000 0000 0000 0000 000000
2013-07-31 00:09:40,0.00,0.00,0.00,25.51,28.45,30.79,5.87,31.17,1019.06,2048.07,3509.02,3350.04,3653.00,349.13,321.25,0.37,0000 0000 0000 0000 000000
2013-07-31 00:10:40,0.02,0.00,0.00,25.51,28.44,30.77,5.99,31.38,1019.06,2048.07,3509.03,3350.04,3653.00,350.02,322.09,0.38,0000 0000 0000 0000 000000
2013-07-31 00:11:41,-0.00,0.00,0.00,25.52,28.43,30.78,6.16,31.33,1019.06,2048.06,3509.08,3350.05,3653.01,350.42,322.40,0.39,0000 0000 0000 0000 000000
2013-07-31 00:12:41,-0.00,0.00,0.00,25.56,28.43,30.81,5.82,31.29,1019.07,2048.03,3509.07,3350.05,3653.00,350.45,322.38,0.39,0000 0000 0000 0000 000000
2013-07-31 00:13:41,-0.02,0.00,0.00,25.61,28.43,30.81,6.08,31.21,1019.06,2048.04,3509.06,3350.05,3653.00,350.38,322.26,0.40,0000 0000 0000 0000 000000
2013-07-31 00:14:41,0.00,0.00,0.00,25.57,28.42,30.77,5.92,31.21,1019.06,2048.04,3509.04,3350.05,3653.00,350.04,322.23,0.40,0000 0000 0000 0000 000000
2013-07-31 00:15:41,-0.01,0.00,0.00,25.59,28.42,30.79,6.13,31.42,1019.09,2048.07,3509.03,3350.13,3653.01,350.19,322.24,0.41,0000 0000 0000 0000 000000
2013-07-31 00:16:41,-0.00,0.00,0.00,25.61,28.42,30.78,5.72,31.29,1019.09,2048.12,3509.09,3350.11,3653.00,349.82,321.60,0.42,0000 0000 0000 0000 000000
2013-07-31 00:17:41,0.04,0.00,0.00,25.62,28.42,30.79,5.86,31.29,1019.06,2048.09,3509.06,3350.06,3653.00,350.27,321.72,0.42,0000 0000 0000 0000 000000
2013-07-31 00:18:42,-0.01,0.00,0.00,25.63,28.42,30.82,6.15,31.46,1019.07,2048.07,3509.03,3350.07,3653.00,351.13,322.94,0.43,0000 0000 0000 0000 000000
2013-07-31 00:19:42,-0.02,0.00,0.00,25.62,28.42,30.81,5.64,31.25,1019.07,2048.07,3509.04,3350.14,3653.00,348.65,320.67,0.43,0000 0000 0000 0000 000000
2013-07-31 00:20:42,-0.00,0.00,0.00,25.61,28.42,30.81,5.95,31.33,1019.09,2048.07,3509.05,3350.14,3653.00,349.80,321.74,0.44,0000 0000 0000 0000 000000
2013-07-31 00:21:42,-0.01,0.00,0.00,25.63,28.42,30.79,5.93,31.33,1019.09,2048.05,3509.03,3350.10,3653.00,351.03,322.69,0.45,0000 0000 0000 0000 000000
2013-07-31 00:22:43,-0.00,0.00,0.00,25.61,28.42,30.81,5.85,31.33,1019.10,2048.06,3509.03,3350.09,3653.00,349.95,321.75,0.45,0000 0000 0000 0000 000000
2013-07-31 00:23:43,0.00,0.00,0.00,25.60,28.42,30.81,5.93,31.25,1019.08,2048.08,3509.04,3350.10,3653.00,350.11,322.02,0.46,0000 0000 0000 0000 000000
2013-07-31 00:24:43,0.02,0.00,0.00,25.55,28.41,30.82,5.73,31.08,1019.08,2048.11,3509.03,3350.15,3652.99,349.04,321.07,0.46,0000 0000 0000 0000 000000
2013-07-31 00:25:43,-0.01,0.00,0.00,25.52,28.41,30.78,5.93,31.29,1019.06,2048.12,3509.06,3350.24,3652.99,349.95,322.47,0.47,0000 0000 0000 0000 000000
2013-07-31 00:26:43,0.02,0.00,0.00,25.56,28.40,30.77,5.96,31.21,1019.06,2048.12,3509.05,3350.16,3652.99,348.99,321.04,0.47,0000 0000 0000 0000 000000
2013-07-31 00:27:43,0.01,0.00,0.00,25.61,28.40,30.80,6.02,31.42,1019.07,2048.09,3509.03,3350.13,3652.99,349.83,321.51,0.48,0000 0000 0000 0000 000000
2013-07-31 00:28:44,0.00,0.00,0.00,25.62,28.40,30.78,5.75,31.25,1019.06,2048.10,3509.04,3350.24,3652.99,349.19,321.34,0.49,0000 0000 0000 0000 000000
2013-07-31 00:29:44,-0.02,0.00,0.00,25.60,28.40,30.75,6.13,31.46,1019.07,2048.08,3509.05,3350.28,3652.99,351.30,322.89,0.49,0000 0000 0000 0000 000000
2013-07-31 00:30:44,-0.01,0.00,0.00,25.56,28.40,30.76,6.13,31.38,1019.08,2048.07,3509.06,3350.25,3652.99,350.39,322.32,0.50,0000 0000 0000 0000 000000
2013-07-31 00:31:44,-0.01,0.00,0.00,25.53,28.40,30.78,5.93,31.29,1019.07,2048.06,3509.05,3350.25,3652.99,349.95,322.47,0.50,0000 0000 0000 0000 000000
2013-07-31 00:32:44,-0.01,0.00,0.00,25.50,28.40,30.78,5.90,31.33,1019.09,2048.18,3509.03,3350.38,3652.99,349.25,321.37,0.51,0000 0000 0000 0000 000000
2013-07-31 00:33:45,0.07,0.00,0.00,25.56,28.40,30.78,5.92,31.29,1019.09,2048.25,3509.02,3350.30,3652.99,350.13,322.10,0.52,0000 0000 0000 0000 000000
2013-07-31 00:34:45,0.07,0.00,0.00,25.57,28.40,30.79,5.76,31.25,1019.08,2048.18,3509.04,3350.38,3652.99,348.94,321.17,0.52,0000 0000 0000 0000 000000
2013-07-31 00:35:45,-0.07,0.00,0.00,25.58,28.40,30.77,6.07,31.42,1019.07,2048.14,3509.02,3350.47,3652.99,350.52,322.09,0.53,0000 0000 0000 0000 000000
2013-07-31 00:36:45,-0.05,0.00,0.00,25.59,28.40,30.75,5.79,31.29,1019.08,2048.23,3509.03,3350.54,3652.99,349.63,321.60,0.53,0000 0000 0000 0000 000000
2013-07-31 00:37:45,0.08,0.00,0.00,25.55,28.39,30.72,6.11,31.42,1019.09,2048.26,3509.03,3350.44,3652.99,349.52,321.56,0.54,0000 0000 0000 0000 000000
2013-07-31 00:38:45,0.02,0.00,0.00,25.60,28.39,30.77,5.82,31.29,1019.07,2048.22,3509.02,3350.40,3652.99,349.04,321.38,0.54,0000 0000 0000 0000 000000
2013-07-31 00:39:46,0.00,0.00,0.00,25.61,28.38,30.78,6.11,31.38,1019.08,2048.25,3509.01,3350.51,3652.99,350.70,322.56,0.55,0000 0000 0000 0000 000000
2013-07-31 00:40:46,-0.01,0.00,0.00,25.60,28.38,30.77,5.73,31.21,1019.09,2048.32,3509.07,3350.69,3652.99,348.75,321.10,0.56,0000 0000 0000 0000 000000
2013-07-31 00:41:46,-0.03,0.00,0.00,25.58,28.37,30.75,5.84,31.29,1019.07,2048.33,3509.06,3350.73,3652.99,350.33,322.31,0.56,0000 0000 0000 0000 000000
2013-07-31 00:42:46,0.06,0.00,0.00,25.55,28.37,30.75,6.08,31.46,1019.07,2048.46,3509.05,3350.67,3652.99,351.04,322.93,0.57,0000 0000 0000 0000 000000
2013-07-31 00:43:47,0.09,0.00,0.00,25.53,28.37,30.77,5.93,31.42,1019.09,2048.41,3509.02,3350.57,3652.99,350.38,322.36,0.57,0000 0000 0000 0000 000000
2013-07-31 00:44:47,-0.01,0.00,0.00,25.51,28.37,30.76,6.09,31.54,1019.09,2048.38,3509.01,3350.65,3652.99,350.04,322.05,0.58,0000 0000 0000 0000 000000
2013-07-31 00:45:47,-0.01,0.00,0.00,25.49,28.37,30.74,5.89,31.38,1019.07,2048.28,3509.00,3350.48,3652.99,350.34,322.34,0.59,0000 0000 0000 0000 000000
2013-07-31 00:46:47,-0.05,0.00,0.00,25.53,28.37,30.74,5.99,31.29,1019.08,2048.24,3509.00,3350.49,3652.99,349.71,321.75,0.59,0000 0000 0000 0000 000000
2013-07-31 00:47:47,-0.03,0.00,0.00,25.55,28.37,30.73,5.77,31.29,1019.09,2048.38,3509.05,3350.67,3652.99,350.77,322.68,0.60,0000 0000 0000 0000 000000
2013-07-31 00:48:47,0.07,0.00,0.00,25.54,28.37,30.75,5.86,31.33,1019.09,2048.37,3509.06,3350.79,3652.99,350.00,322.00,0.60,0000 0000 0000 0000 000000
2013-07-31 00:49:48,-0.03,0.00,0.00,25.52,28.37,30.73,5.78,31.29,1019.12,2048.38,3509.06,3350.85,3652.99,350.05,322.07,0.61,0000 0000 0000 0000 000000
2013-07-31 00:50:48,0.00,0.00,0.00,25.53,28.37,30.74,5.93,31.33,1019.18,2048.52,3509.08,3350.81,3652.99,349.76,321.77,0.61,0000 0000 0000 0000 000000
2013-07-31 00:51:48,0.14,0.00,0.00,25.50,28.37,30.76,5.78,31.42,1019.22,2048.52,3509.08,3350.83,3652.99,349.44,321.57,0.62,0000 0000 0000 0000 000000
2013-07-31 00:52:48,-0.05,0.00,0.00,25.45,28.37,30.74,6.01,31.58,1019.32,2048.43,3509.07,3350.88,3652.98,349.66,322.01,0.63,0000 0000 0000 0000 000000
2013-07-31 00:53:48,-0.10,0.00,0.00,25.51,28.37,30.73,5.88,31.38,1019.32,2048.45,3509.04,3350.89,3652.99,349.94,321.91,0.63,0000 0000 0000 0000 000000
2013-07-31 00:54:48,0.07,0.00,0.00,25.50,28.36,30.73,5.93,31.29,1019.37,2048.59,3509.07,3350.92,3652.99,350.16,322.48,0.64,0000 0000 0000 0000 000000
2013-07-31 00:55:48,0.11,0.00,0.00,25.42,28.35,30.73,5.93,31.38,1019.37,2048.71,3509.06,3350.93,3652.99,349.93,322.14,0.64,0000 0000 0000 0000 000000
2013-07-31 00:56:49,0.09,0.00,0.00,25.45,28.35,30.73,6.10,31.38,1019.36,2048.75,3509.05,3350.94,3652.99,350.23,322.71,0.65,0000 0000 0000 0000 000000
2013-07-31 00:57:49,0.00,0.00,0.00,25.49,28.35,30.69,5.74,31.21,1019.38,2048.81,3509.04,3350.95,3652.99,349.25,321.45,0.66,0000 0000 0000 0000 000000
2013-07-31 00:58:49,0.03,0.00,0.00,25.47,28.35,30.70,5.99,31.33,1019.41,2048.85,3509.02,3350.96,3652.99,350.27,322.63,0.66,0000 0000 0000 0000 000000
2013-07-31 00:59:49,0.04,0.00,0.00,25.48,28.35,30.71,5.92,30.92,1019.42,2048.82,3509.04,3350.93,3652.99,350.52,322.27,0.67,0000 0000 0000 0000 000000
2013-07-31 01:00:49,-0.02,0.00,0.00,25.46,28.35,30.73,5.81,31.17,1019.46,2048.81,3509.08,3350.94,3652.99,349.37,321.61,0.67,0000 0000 0000 0000 000000
2013-07-31 01:01:49,-0.03,0.00,0.00,25.46,28.35,30.73,5.82,31.29,1019.47,2048.81,3509.11,3350.97,3652.99,350.01,321.76,0.68,0000 0000 0000 0000 000000
2013-07-31 01:02:49,0.03,0.00,0.00,25.46,28.35,30.72,5.84,31.38,1019.49,2048.90,3509.07,3350.99,3652.99,349.65,321.89,0.68,0000 0000 0000 0000 000000
2013-07-31 01:03:50,0.05,0.00,0.00,25.44,28.35,30.73,6.02,31.38,1019.51,2048.94,3509.05,3350.98,3652.99,350.63,322.47,0.69,0000 0000 0000 0000 000000
2013-07-31 01:04:50,0.04,0.00,0.00,25.45,28.35,30.75,5.92,31.17,1019.50,2048.89,3509.03,3350.98,3652.99,350.19,322.21,0.70,0000 0000 0000 0000 000000
2013-07-31 01:05:50,-0.07,0.00,0.00,25.44,28.35,30.75,5.89,31.21,1019.53,2048.85,3509.05,3350.97,3652.99,349.43,321.71,0.70,0000 0000 0000 0000 000000
2013-07-31 01:06:50,-0.01,0.00,0.00,25.50,28.35,30.70,6.09,31.42,1019.51,2048.81,3509.07,3350.96,3652.99,350.39,322.53,0.71,0000 0000 0000 0000 000000
2013-07-31 01:07:50,-0.03,0.00,0.00,25.54,28.35,30.71,5.88,31.29,1019.51,2048.85,3509.06,3350.97,3652.99,350.24,322.35,0.71,0000 0000 0000 0000 000000
2013-07-31 01:08:51,0.03,0.00,0.00,25.55,28.35,30.74,6.05,31.54,1019.52,2048.76,3509.08,3350.98,3652.99,350.95,323.00,0.72,0000 0000 0000 0000 000000
2013-07-31 01:09:51,-0.11,0.00,0.00,25.53,28.35,30.71,5.76,31.29,1019.52,2048.69,3509.06,3350.99,3652.99,349.38,321.55,0.73,0000 0000 0000 0000 000000
2013-07-31 01:10:51,-0.01,0.00,0.00,25.51,28.34,30.71,6.15,31.54,1019.53,2048.80,3509.07,3350.99,3652.99,350.61,322.64,0.73,0000 0000 0000 0000 000000
2013-07-31 01:11:51,0.10,0.00,0.00,25.51,28.34,30.70,6.15,31.42,1019.53,2048.86,3509.10,3350.98,3652.99,351.17,323.56,0.74,0000 0000 0000 0000 000000
2013-07-31 01:12:51,0.03,0.00,0.00,25.51,28.33,30.74,5.92,31.46,1019.53,2048.90,3509.10,3350.98,3652.99,350.37,322.79,0.74,0000 0000 0000 0000 000000
2013-07-31 01:13:51,0.00,0.00,0.00,25.47,28.33,30.73,6.07,31.38,1019.54,2048.93,3509.08,3350.98,3652.99,350.02,322.22,0.75,0000 0000 0000 0000 000000
2013-07-31 01:14:51,0.05,0.00,0.00,25.48,28.32,30.72,5.98,31.50,1019.55,2048.91,3509.06,3350.99,3652.99,350.64,322.68,0.76,0000 0000 0000 0000 000000
2013-07-31 01:15:51,-0.03,0.00,0.00,25.47,28.32,30.71,6.01,31.38,1019.55,2048.90,3509.06,3350.99,3652.98,350.10,322.30,0.76,0000 0000 0000 0000 000000
2013-07-31 01:16:52,0.00,0.00,0.00,25.50,28.32,30.71,5.75,31.33,1019.55,2048.94,3509.03,3350.99,3652.99,348.91,321.62,0.77,0000 0000 0000 0000 000000
2013-07-31 01:17:52,0.04,0.00,0.00,25.49,28.32,30.74,5.80,31.46,1019.55,2048.97,3509.02,3350.99,3652.99,349.05,321.32,0.77,0000 0000 0000 0000 000000
2013-07-31 01:18:52,0.00,0.00,0.00,25.36,28.32,30.71,6.02,31.42,1019.55,2048.97,3509.04,3350.99,3652.99,350.35,322.64,0.78,0000 0000 0000 0000 000000
2013-07-31 01:19:52,0.00,0.00,0.00,25.42,28.32,30.70,5.95,31.38,1019.55,2048.93,3509.05,3350.99,3652.99,349.25,321.58,0.78,0000 0000 0000 0000 000000
2013-07-31 01:20:53,-0.04,0.00,0.00,25.48,28.32,30.72,6.00,31.54,1019.55,2048.92,3509.04,3350.99,3652.99,350.34,322.07,0.79,0000 0000 0000 0000 000000
2013-07-31 01:21:53,0.01,0.00,0.00,25.52,28.32,30.73,6.07,31.38,1019.55,2048.95,3509.05,3350.99,3652.99,350.89,323.09,0.80,0000 0000 0000 0000 000000
2013-07-31 01:22:53,0.01,0.00,0.00,25.54,28.32,30.73,6.00,31.50,1019.55,2048.95,3509.05,3350.98,3652.99,350.06,322.18,0.80,0000 0000 0000 0000 000000
2013-07-31 01:23:53,0.01,0.00,0.00,25.53,28.32,30.69,5.97,31.58,1019.55,2048.97,3509.08,3350.99,3652.99,349.78,321.94,0.81,0000 0000 0000 0000 000000
2013-07-31 01:24:54,0.01,0.00,0.00,25.50,28.32,30.67,6.02,31.29,1019.55,2048.97,3509.10,3350.99,3652.99,349.75,322.31,0.81,0000 0000 0000 0000 000000
2013-07-31 01:25:54,-0.01,0.00,0.00,25.53,28.32,30.71,5.95,31.46,1019.55,2048.96,3509.10,3350.99,3653.00,349.42,321.69,0.82,0000 0000 0000 0000 000000
2013-07-31 01:26:54,0.00,0.00,0.00,25.50,28.32,30.73,5.97,31.46,1019.55,2048.98,3509.09,3350.99,3653.01,349.67,321.88,0.83,0000 0000 0000 0000 000000
2013-07-31 01:27:54,0.01,0.00,0.00,25.53,28.32,30.70,5.93,31.54,1019.56,2048.98,3509.13,3350.99,3653.00,349.12,321.64,0.83,0000 0000 0000 0000 000000
2013-07-31 01:28:54,0.00,0.00,0.00,25.54,28.32,30.70,5.96,31.33,1019.55,2048.99,3509.21,3350.99,3653.00,349.39,321.58,0.84,0000 0000 0000 0000 000000
2013-07-31 01:29:55,0.00,0.00,0.00,25.54,28.32,30.67,5.95,31.58,1019.57,2048.99,3509.19,3350.99,3653.00,350.15,322.28,0.84,0000 0000 0000 0000 000000
2013-07-31 01:30:55,0.00,0.00,0.00,25.54,28.32,30.70,5.97,31.50,1019.57,2048.98,3509.10,3350.99,3653.00,349.70,321.66,0.85,0000 0000 0000 0000 000000
2013-07-31 01:31:55,0.01,0.00,0.00,25.52,28.32,30.70,6.17,31.54,1019.56,2048.99,3509.05,3350.99,3653.00,350.69,322.80,0.85,0000 0000 0000 0000 000000
2013-07-31 01:32:55,0.00,0.00,0.00,25.43,28.31,30.73,5.92,31.33,1019.56,2048.98,3509.07,3350.99,3653.00,349.74,322.15,0.86,0000 0000 0000 0000 000000
2013-07-31 01:33:55,0.00,0.00,0.00,25.41,28.31,30.73,5.95,31.38,1019.55,2048.99,3509.08,3350.99,3653.00,349.48,321.80,0.87,0000 0000 0000 0000 000000
2013-07-31 01:34:56,0.00,0.00,0.00,25.51,28.31,30.72,6.07,31.38,1019.55,2048.99,3509.10,3350.99,3653.00,350.44,323.05,0.87,0000 0000 0000 0000 000000
2013-07-31 01:35:56,0.00,0.00,0.00,25.58,28.30,30.72,6.08,31.67,1019.55,2048.99,3509.07,3350.99,3653.00,350.03,322.01,0.88,0000 0000 0000 0000 000000
2013-07-31 01:36:56,0.00,0.00,0.00,25.59,28.30,30.71,5.93,31.63,1019.56,2048.99,3509.04,3350.99,3653.00,350.62,321.99,0.88,0000 0000 0000 0000 000000
2013-07-31 01:37:56,0.00,0.00,0.00,25.58,28.30,30.69,5.97,31.58,1019.55,2048.99,3509.03,3350.99,3653.00,349.47,322.29,0.89,0000 0000 0000 0000 000000
2013-07-31 01:38:57,0.00,0.00,0.00,25.59,28.30,30.73,5.87,31.25,1019.56,2048.98,3509.04,3350.99,3653.00,350.61,322.64,0.90,0000 0000 0000 0000 000000
2013-07-31 01:39:57,-0.01,0.00,0.00,25.60,28.30,30.71,5.91,31.67,1019.55,2048.99,3509.03,3350.99,3653.00,349.51,321.62,0.90,0000 0000 0000 0000 000000
2013-07-31 01:40:57,0.01,0.00,0.00,25.56,28.30,30.71,5.92,31.46,1019.55,2048.99,3509.04,3350.99,3653.00,349.85,321.97,0.91,0000 0000 0000 0000 000000
2013-07-31 01:41:57,0.00,0.00,0.00,25.56,28.30,30.72,5.95,31.54,1019.56,2048.99,3509.06,3350.99,3653.00,350.07,322.19,0.91,0000 0000 0000 0000 000000
2013-07-31 01:42:58,0.00,0.00,0.00,25.56,28.30,30.73,5.87,31.46,1019.55,2048.99,3509.04,3350.99,3653.00,350.14,321.97,0.92,0000 0000 0000 0000 000000
2013-07-31 01:43:58,0.00,0.00,0.00,25.52,28.30,30.73,5.86,31.54,1019.55,2048.99,3509.04,3350.99,3653.00,349.60,321.44,0.92,0000 0000 0000 0000 000000
2013-07-31 01:44:58,-0.00,0.00,0.00,25.48,28.30,30.72,5.78,31.42,1019.55,2048.96,3509.03,3350.99,3653.00,349.35,321.91,0.93,0000 0000 0000 0000 000000
2013-07-31 01:45:58,-0.02,0.00,0.00,25.49,28.30,30.74,6.01,31.67,1019.55,2048.97,3509.03,3350.99,3653.00,350.48,322.63,0.94,0000 0000 0000 0000 000000
2013-07-31 01:46:59,0.00,0.00,0.00,25.51,28.30,30.72,6.04,31.42,1019.55,2048.99,3509.01,3350.99,3653.00,350.54,322.67,0.94,0000 0000 0000 0000 000000
2013-07-31 01:47:59,0.01,0.00,0.00,25.49,28.30,30.72,6.01,31.63,1019.56,2048.99,3509.00,3350.98,3652.99,350.13,322.32,0.95,0000 0000 0000 0000 000000
2013-07-31 01:48:59,0.00,0.00,0.00,25.46,28.30,30.74,5.86,31.50,1019.55,2048.99,3509.00,3350.99,3652.98,349.36,322.08,0.95,0000 0000 0000 0000 000000
2013-07-31 01:49:59,0.00,0.00,0.00,25.50,28.30,30.72,6.08,31.46,1019.55,2048.99,3509.00,3350.99,3652.99,350.83,322.95,0.96,0000 0000 0000 0000 000000
2013-07-31 01:50:59,0.00,0.00,0.00,25.50,28.30,30.70,5.96,31.46,1019.55,2048.99,3509.01,3350.99,3652.99,349.66,321.87,0.97,0000 0000 0000 0000 000000
2013-07-31 01:52:00,0.00,0.00,0.00,25.46,28.30,30.69,5.93,31.50,1019.55,2048.99,3509.00,3350.99,3652.98,350.10,322.03,0.97,0000 0000 0000 0000 000000
2013-07-31 01:53:00,0.00,0.00,0.00,25.47,28.30,30.66,5.93,31.50,1019.55,2048.98,3509.00,3350.99,3652.98,349.88,321.79,0.98,0000 0000 0000 0000 000000
2013-07-31 01:54:00,0.00,0.00,0.00,25.51,28.30,30.70,5.90,31.38,1019.55,2048.99,3509.00,3350.99,3652.96,350.82,322.93,0.98,0000 0000 0000 0000 000000
2013-07-31 01:55:00,0.01,0.00,0.00,25.53,28.29,30.72,5.98,31.42,1019.55,2048.99,3509.00,3350.99,3652.98,350.02,322.68,0.99,0000 0000 0000 0000 000000
2013-07-31 01:56:01,0.00,0.00,0.00,25.55,28.29,30.74,5.84,31.42,1019.55,2048.99,3509.00,3350.99,3652.99,349.70,322.33,0.99,0000 0000 0000 0000 000000
2013-07-31 01:57:01,0.00,0.00,0.00,25.56,28.29,30.71,5.83,31.33,1019.56,2048.99,3509.00,3350.99,3652.99,349.31,321.09,1.00,0000 0000 0000 0000 000000
2013-07-31 01:58:01,0.00,0.00,0.00,25.57,28.28,30.69,6.07,31.33,1019.57,2048.99,3509.00,3350.98,3652.99,350.13,322.24,1.01,0000 0000 0000 0000 000000
2013-07-31 01:59:01,0.00,0.00,0.00,25.49,28.28,30.70,6.10,31.42,1019.56,2048.99,3509.00,3350.99,3652.99,350.60,322.68,1.01,0000 0000 0000 0000 000000
2013-07-31 02:00:01,0.00,0.00,0.00,25.47,28.28,30.70,6.14,31.46,1019.55,2048.99,3509.00,3350.99,3652.98,349.75,321.85,1.02,0000 0000 0000 0000 000000
2013-07-31 02:01:01,0.00,0.00,0.00,25.53,28.27,30.72,5.96,31.29,1019.56,2048.99,3509.01,3350.99,3652.98,350.06,322.20,1.02,0000 0000 0000 0000 000000
2013-07-31 02:02:02,0.00,0.00,0.00,25.59,28.27,30.75,5.81,31.38,1019.56,2048.98,3509.00,3350.99,3652.98,349.60,321.73,1.03,0000 0000 0000 0000 000000
2013-07-31 02:03:02,0.00,0.00,0.00,25.60,28.27,30.72,5.71,31.21,1019.57,2048.99,3509.00,3350.99,3652.97,349.20,321.34,1.04,0000 0000 0000 0000 000000
2013-07-31 02:04:02,0.00,0.00,0.00,25.56,28.27,30.74,5.77,31.21,1019.59,2048.99,3509.00,3350.99,3652.98,350.22,322.69,1.04,0000 0000 0000 0000 000000
2013-07-31 02:05:02,0.00,0.00,0.00,25.57,28.27,30.72,6.11,31.42,1019.59,2048.99,3509.00,3350.99,3652.99,351.03,323.07,1.05,0000 0000 0000 0000 000000
2013-07-31 02:06:03,0.00,0.00,0.00,25.56,28.27,30.72,6.02,31.08,1019.66,2048.99,3509.00,3350.99,3652.97,350.12,322.26,1.05,0000 0000 0000 0000 000000
2013-07-31 02:07:03,0.00,0.00,0.00,25.54,28.27,30.70,5.98,30.88,1019.76,2048.99,3509.00,3350.99,3652.97,349.63,322.13,1.06,0000 0000 0000 0000 000000
2013-07-31 02:08:03,0.00,0.00,0.00,25.54,28.27,30.70,5.93,30.96,1019.80,2048.99,3509.01,3350.99,3652.96,350.16,321.97,1.07,0000 0000 0000 0000 000000
2013-07-31 02:09:03,0.00,0.00,0.00,25.58,28.27,30.72,5.83,31.38,1019.84,2048.99,3509.00,3350.99,3652.98,349.60,321.71,1.07,0000 0000 0000 0000 000000
2013-07-31 02:10:03,0.00,0.00,0.00,25.55,28.27,30.72,5.84,31.25,1019.86,2048.99,3509.00,3350.99,3652.99,349.23,321.51,1.08,0000 0000 0000 0000 000000
2013-07-31 02:11:03,0.00,0.00,0.00,25.54,28.27,30.71,5.88,31.38,1019.91,2048.99,3509.00,3350.99,3652.99,349.64,321.92,1.08,0000 0000 0000 0000 000000
2013-07-31 02:12:03,0.00,0.00,0.00,25.53,28.27,30.72,5.98,31.33,1019.93,2048.99,3509.00,3350.99,3652.99,351.08,323.26,1.09,0000 0000 0000 0000 000000
2013-07-31 02:13:04,0.00,0.00,0.00,25.52,28.27,30.71,5.87,31.21,1019.98,2048.99,3509.00,3350.99,3652.99,349.15,321.90,1.09,0000 0000 0000 0000 000000
2013-07-31 02:14:04,0.00,0.00,0.00,25.48,28.27,30.69,5.84,31.58,1019.96,2048.99,3509.00,3350.99,3652.99,349.42,321.80,1.10,0000 0000 0000 0000 000000
2013-07-31 02:15:04,0.00,0.00,0.00,25.53,28.27,30.71,5.96,31.46,1019.97,2048.99,3509.00,3350.99,3652.99,350.60,322.41,1.11,0000 0000 0000 0000 000000
2013-07-31 02:16:04,0.00,0.00,0.00,25.51,28.27,30.72,6.05,31.38,1020.00,2048.99,3509.00,3350.99,3652.99,350.74,323.05,1.11,0000 0000 0000 0000 000000
2013-07-31 02:17:05,0.00,0.00,0.00,25.54,28.27,30.72,6.02,31.50,1020.00,2048.99,3509.00,3350.99,3652.99,349.52,321.91,1.12,0000 0000 0000 0000 000000
2013-07-31 02:18:05,0.00,0.00,0.00,25.58,28.27,30.71,6.01,31.38,1020.03,2048.99,3509.00,3350.99,3652.98,349.90,322.30,1.12,0000 0000 0000 0000 000000
2013-07-31 02:19:05,0.00,0.00,0.00,25.58,28.27,30.71,6.00,31.58,1020.03,2048.99,3509.01,3350.99,3652.96,350.78,322.97,1.13,0000 0000 0000 0000 000000
2013-07-31 02:20:05,0.00,0.00,0.00,25.61,28.27,30.71,5.97,31.46,1020.02,2048.99,3509.03,3350.99,3652.98,350.41,322.59,1.14,0000 0000 0000 0000 000000
2013-07-31 02:21:05,0.00,0.00,0.00,25.58,28.27,30.72,5.95,31.54,1020.03,2048.99,3509.03,3351.00,3652.99,350.15,322.38,1.14,0000 0000 0000 0000 000000
2013-07-31 02:22:05,0.00,0.00,0.00,25.56,28.27,30.72,5.94,31.38,1020.03,2048.99,3509.01,3351.00,3652.99,350.48,322.53,1.15,0000 0000 0000 0000 000000
2013-07-31 02:23:06,0.00,0.00,0.00,25.51,28.27,30.72,6.08,31.50,1020.03,2048.99,3509.02,3351.00,3652.99,350.99,322.88,1.15,0000 0000 0000 0000 000000
2013-07-31 02:24:06,0.00,0.00,0.00,25.45,28.27,30.71,5.98,31.21,1020.03,2048.99,3509.03,3351.02,3652.99,350.48,323.32,1.16,0000 0000 0000 0000 000000
2013-07-31 02:25:06,0.00,0.00,0.00,25.39,28.27,30.67,5.91,31.29,1020.03,2048.99,3509.05,3351.01,3652.99,349.03,321.89,1.16,0000 0000 0000 0000 000000
2013-07-31 02:26:07,0.00,0.00,0.00,25.47,28.27,30.70,6.01,31.38,1020.03,2048.99,3509.03,3351.00,3652.98,350.62,322.94,1.17,0000 0000 0000 0000 000000
2013-07-31 02:27:07,0.00,0.00,0.00,25.52,28.27,30.71,6.10,31.29,1020.03,2048.99,3509.04,3351.00,3652.98,350.24,322.53,1.18,0000 0000 0000 0000 000000
2013-07-31 02:28:07,0.00,0.00,0.00,25.54,28.27,30.68,5.92,31.50,1020.03,2048.99,3509.02,3351.02,3652.98,351.07,323.28,1.18,0000 0000 0000 0000 000000
2013-07-31 02:29:07,0.00,0.00,0.00,25.50,28.27,30.69,5.82,31.25,1020.03,2048.99,3509.03,3351.00,3652.99,350.09,322.42,1.19,0000 0000 0000 0000 000000
2013-07-31 02:30:07,0.00,0.00,0.00,25.47,28.27,30.69,5.99,31.42,1020.03,2048.99,3509.01,3351.00,3652.99,349.76,322.01,1.19,0000 0000 0000 0000 000000
2013-07-31 02:31:08,0.00,0.00,0.00,25.47,28.26,30.69,5.90,31.42,1020.03,2048.99,3509.01,3351.00,3652.99,350.00,322.62,1.20,0000 0000 0000 0000 000000
2013-07-31 02:32:08,0.00,0.00,0.00,25.46,28.26,30.68,6.02,31.33,1020.03,2048.99,3509.03,3351.00,3652.99,350.34,322.19,1.21,0000 0000 0000 0000 000000
2013-07-31 02:33:08,0.00,0.00,0.00,25.40,28.26,30.70,5.83,31.33,1020.03,2048.99,3509.01,3351.00,3652.99,348.98,321.72,1.21,0000 0000 0000 0000 000000
2013-07-31 02:34:08,0.00,0.00,0.00,25.39,28.26,30.69,5.91,31.38,1020.03,2048.99,3509.00,3351.00,3652.98,350.13,322.22,1.22,0000 0000 0000 0000 000000
2013-07-31 02:35:09,0.00,0.00,0.00,25.46,28.25,30.69,5.98,31.21,1020.03,2048.99,3509.00,3351.00,3652.99,349.90,322.31,1.22,0000 0000 0000 0000 000000
2013-07-31 02:36:09,0.00,0.00,0.00,25.52,28.25,30.71,6.03,31.25,1020.03,2048.99,3509.00,3351.00,3652.98,350.49,322.77,1.23,0000 0000 0000 0000 000000
2013-07-31 02:37:09,0.00,0.00,0.00,25.50,28.25,30.65,5.92,31.33,1020.02,2048.99,3509.02,3351.00,3652.99,350.43,322.72,1.23,0000 0000 0000 0000 000000